Retour au catalogue

ARIANE 1 DEB

ActifHEO
NORAD 17255·DEBRIS·🇫🇷 France

Lancé Jul 2, 1985 depuis Guiana Space Centre

Loading…

Prochains Passages (prochaines 24 heures)

TLE

FraisSource: Space-Track

Époque: Sep 14, 2026, 00:45 UTC

1 17255U 85056C   26257.03171463 -.00000193  00000-0 -43953-3 0  9993
2 17255   8.2361 182.8708 6438023 209.5254  89.5251  3.23420626348507

Suivez ARIANE 1 DEB en temps réel avec AllMySat

Download on the App Store